Regional Weather Roundup
Issued by NWS

Home | Current Version | Previous Version | Graphics & Text | Print | Product List | Glossary On
Versions: 1 2 3 4 5 6 7 8 9 10 11 12 13 14 15 16 17 18 19 20 21 22 23 24 25 26 27 28 29 30 31 32 33 34 35 36 37 38 39 40 41 42 43 44 45 46 47 48 49 50
000
ASUS43 KLSX 261807
RWRMO

WEATHER SUMMARY FOR MISSOURI
NATIONAL WEATHER SERVICE SPRINGFIELD MO
1200 PM CST WED NOV 26 2014

NOTE: "FAIR" INDICATES FEW OR NO CLOUDS BELOW 12,000 FEET WITH NO
       SIGNIFICANT WEATHER AND/OR OBSTRUCTIONS TO VISIBILITY.
       CURRENT SKY AND/OR WEATHER CONDITIONS ARE NOT AVAILABLE FOR
       CHILLICOTHE AND FARMINGTON.

MOZ001>031-035>038-043-044-053-054-261900-
...NORTHERN AND WESTERN MISSOURI...

CITY           SKY/WX    TMP DP  RH WIND       PRES   REMARKS
KANSAS CTY INT CLOUDY    39  31  72 NW23G32   30.00R WCI  28
6HR MIN TEMP:  35; 6HR MAX TEMP:  41;

KANSAS C DTWN  CLOUDY    42  31  64 NW18G26   30.00R
6HR MIN TEMP:  36; 6HR MAX TEMP:  43; 6HR PCP: TRACE;

LEE`S SUMMIT   CLOUDY    41  31  67 NW16G28   29.99S
6HR MIN TEMP:  34; 6HR MAX TEMP:  42;

ST JOSEPH      CLOUDY    38  31  76 NW28G36   30.00R WCI  26
6HR MIN TEMP:  37; 6HR MAX TEMP:  40; 6HR PCP: TRACE;

CHILLICOTHE      N/A     39  34  82 W8        29.93F
6HR MIN TEMP:  34; 6HR MAX TEMP:  40;

KIRKSVILLE     CLOUDY    33  33 100 S8        29.91F FOG     WCI  26
6HR MIN TEMP:  29; 6HR MAX TEMP:  33; 6HR PCP:  0.08;


$$
MOZ066>068-077>081-088>096-101>105-261900-
...SOUTHWEST MISSOURI...

CITY           SKY/WX    TMP DP  RH WIND       PRES   REMARKS
SPRINGFIELD    PTSUNNY   45  34  65 W16G24    29.99S
6HR MIN TEMP:  33; 6HR MAX TEMP:  46; 6HR PCP:  0.01;

JOPLIN         PTSUNNY   47  27  45 NW16G29   30.05S
6HR MIN TEMP:  38; 6HR MAX TEMP:  49; 6HR PCP: TRACE;


$$
MOZ032>034-039>042-045>050-055>058-069>072-261900-
...CENTRAL MISSOURI...

CITY           SKY/WX    TMP DP  RH WIND       PRES   REMARKS
COLUMBIA       CLOUDY    40  36  86 W7        29.94F
6HR MIN TEMP:  31; 6HR MAX TEMP:  40; 6HR PCP:  0.07;

JEFFERSON CITY CLOUDY    39  36  89 SW8       29.96F
6HR MIN TEMP:  28; 6HR MAX TEMP:  39;

ROLLA          LGT SNOW  33  32  96 SW9       29.93F FOG     WCI  25
6HR MIN TEMP:  32; 6HR MAX TEMP:  35; 6HR PCP:  0.15;

SEDALIA        CLOUDY    43  32  65 NW15G23   29.96S
6HR MIN TEMP:  34; 6HR MAX TEMP:  44; 6HR PCP:  0.04;

WHITEMAN AFB   PTSUNNY   42  33  71 NW13      29.96S
WARRENSBURG    CLOUDY    41  32  70 W9G17     29.98S
OSAGE BEACH    CLOUDY    39  34  81 W6        29.96F

$$
MOZ051-052-059>065-261900-
...EAST CENTRAL MISSOURI...

CITY           SKY/WX    TMP DP  RH WIND       PRES   REMARKS
ST LOUIS INTL  LGT SNOW  36  28  75 SE12      29.99F WCI  27
6HR MIN TEMP:  30; 6HR MAX TEMP:  36; 6HR PCP: TRACE;

SPIRIT OF STL  LGT SNOW  34  30  86 SE3       29.98F VSB 3/4
6HR MIN TEMP:  28; 6HR MAX TEMP:  35; 6HR PCP: TRACE;

ST CHARLES     CLOUDY    35  30  82 E6        29.99F
6HR MIN TEMP:  28; 6HR MAX TEMP:  35;


$$
MOZ072>076-082>087-097>100-106>115-261900-
...SOUTH CENTRAL AND SOUTHEAST MISSOURI...

CITY           SKY/WX    TMP DP  RH WIND       PRES   REMARKS
CAPE GIRARDEAU CLOUDY    39  32  76 SE12      30.03F
6HR MIN TEMP:  26; 6HR MAX TEMP:  39;

FARMINGTON     CLOUDY    36  30  80 SE12      29.97F WCI  27
6HR MIN TEMP:  25; 6HR MAX TEMP:  36;

POPLAR BLUFF   LGT RAIN  38  32  79 SE7       30.00F
6HR MIN TEMP:  24; 6HR MAX TEMP:  38; 6HR PCP: TRACE;

WEST PLAINS    CLOUDY    36  33  89 W8        29.96F WCI  30
6HR MIN TEMP:  31; 6HR MAX TEMP:  36; 6HR PCP:  0.07;


$$


USA.gov is the U.S. government's official web portal to all federal, state and local government web resources and services.